| time (UTC) | temp C | wind direction | speed KPH | gust KPH | rain 1hr cm | rain 24hr cm | rain mn cm | humidity % | barometer mb |
| 20260505034544 | 20 | 355 | 6.4 | 14.5 | 0.00 | 0.00 | 0.00 | 58 | 1010.7 |
| 20260505033041 | 21 | 36 | 4.8 | 14.5 | 0.00 | 0.00 | 0.00 | 56 | 1010.6 |
| 20260505031548 | 22 | 19 | 4.8 | 16.1 | 0.00 | 0.00 | 0.00 | 54 | 1010.4 |
| 20260505030048 | 23 | 17 | 9.7 | 19.3 | 0.00 | 0.00 | 0.00 | 53 | 1010.2 |
| 20260505024547 | 23 | 347 | 4.8 | 14.5 | 0.00 | 0.00 | 0.00 | 51 | 1010.0 |
| 20260505023040 | 24 | 13 | 3.2 | 8.0 | 0.00 | 0.00 | 0.00 | 50 | 1009.9 |
| 20260505021544 | 25 | 0 | 0.0 | 4.8 | 0.00 | 0.00 | 0.00 | 50 | 1009.9 |
| 20260505020041 | 25 | 269 | 0.0 | 9.7 | 0.00 | 0.00 | 0.00 | 49 | 1009.9 |
| 20260505014600 | 25 | 271 | 0.0 | 9.7 | 0.00 | 0.00 | 0.00 | 47 | 1009.9 |
| 20260505013041 | 25 | 0 | 1.6 | 11.3 | 0.00 | 0.00 | 0.00 | 47 | 1009.9 |
| 20260505011548 | 25 | 280 | 1.6 | 11.3 | 0.00 | 0.00 | 0.00 | 47 | 1010.0 |
| 20260505010048 | 25 | 0 | 1.6 | 12.9 | 0.00 | 0.00 | 0.00 | 46 | 1010.0 |
| 20260505004543 | 25 | 0 | 0.0 | 11.3 | 0.00 | 0.00 | 0.00 | 48 | 1010.0 |
| 20260505003040 | 26 | 0 | 0.0 | 9.7 | 0.00 | 0.00 | 0.00 | 45 | 1010.2 |
| 20260505001540 | 26 | 277 | 1.6 | 11.3 | 0.00 | 0.00 | 0.00 | 40 | 1010.2 |
| 20260505000048 | 26 | 0 | 1.6 | 12.9 | 0.00 | 0.00 | 0.00 | 44 | 1010.2 |
| 20260504234548 | 26 | 260 | 3.2 | 19.3 | 0.00 | 0.00 | 0.00 | 43 | 1010.2 |
| 20260504233101 | 26 | 0 | 1.6 | 14.5 | 0.00 | 0.00 | 0.00 | 45 | 1010.3 |
| 20260504231543 | 26 | 279 | 3.2 | 12.9 | 0.00 | 0.00 | 0.00 | 43 | 1010.2 |
| 20260504230041 | 26 | 279 | 0.0 | 12.9 | 0.00 | 0.00 | 0.00 | 44 | 1010.3 |
| 20260504224540 | 26 | 276 | 4.8 | 20.9 | 0.00 | 0.00 | 0.00 | 43 | 1010.3 |
| 20260504223056 | 26 | 0 | 1.6 | 12.9 | 0.00 | 0.00 | 0.00 | 45 | 1010.5 |
| 20260504221542 | 26 | 0 | 0.0 | 9.7 | 0.00 | 0.00 | 0.00 | 44 | 1010.8 |
| 20260504220038 | 27 | 294 | 3.2 | 14.5 | 0.00 | 0.00 | 0.00 | 41 | 1011.0 |
| 20260504214536 | 27 | 252 | 4.8 | 12.9 | 0.00 | 0.00 | 0.00 | 38 | 1011.0 |
| 20260504213053 | 27 | 281 | 4.8 | 11.3 | 0.00 | 0.00 | 0.00 | 39 | 1011.0 |
| 20260504211541 | 28 | 277 | 3.2 | 12.9 | 0.00 | 0.00 | 0.00 | 38 | 1011.0 |
| 20260504210042 | 27 | 272 | 3.2 | 16.1 | 0.00 | 0.00 | 0.00 | 39 | 1011.1 |
| 20260504204546 | 27 | 272 | 3.2 | 19.3 | 0.00 | 0.00 | 0.00 | 37 | 1011.2 |
| 20260504203044 | 26 | 294 | 1.6 | 14.5 | 0.00 | 0.00 | 0.00 | 47 | 1011.2 |
| 20260504201542 | 26 | 300 | 1.6 | 8.0 | 0.00 | 0.00 | 0.00 | 48 | 1011.2 |
| 20260504200041 | 25 | 284 | 1.6 | 14.5 | 0.00 | 0.00 | 0.00 | 49 | 1011.2 |
| 20260504194541 | 25 | 160 | 1.6 | 11.3 | 0.00 | 0.00 | 0.00 | 51 | 1011.3 |
| 20260504193047 | 23 | 290 | 1.6 | 9.7 | 0.00 | 0.00 | 0.00 | 52 | 1011.3 |
| 20260504191537 | 22 | 293 | 1.6 | 11.3 | 0.00 | 0.00 | 0.00 | 55 | 1011.4 |
| 20260504190046 | 22 | 0 | 0.0 | 12.9 | 0.00 | 0.00 | 0.00 | 51 | 1011.6 |
| 20260504184540 | 21 | 0 | 1.6 | 11.3 | 0.00 | 0.00 | 0.00 | 58 | 1011.7 |
| 20260504183040 | 20 | 0 | 0.0 | 9.7 | 0.00 | 0.00 | 0.00 | 63 | 1011.7 |
| 20260504181545 | 20 | 277 | 3.2 | 11.3 | 0.00 | 0.00 | 0.00 | 65 | 1011.7 |
| 20260504180046 | 19 | 163 | 1.6 | 6.4 | 0.00 | 0.00 | 0.00 | 67 | 1011.7 |
| 20260504174544 | 18 | 278 | 1.6 | 9.7 | 0.00 | 0.00 | 0.00 | 67 | 1011.7 |
| 20260504173041 | 18 | 273 | 3.2 | 6.4 | 0.00 | 0.00 | 0.00 | 68 | 1011.8 |
| 20260504171547 | 17 | 286 | 1.6 | 8.0 | 0.00 | 0.00 | 0.00 | 69 | 1011.8 |
| 20260504081545 | 14 | 0 | 0.0 | 0.0 | 0.00 | 0.00 | 0.00 | 79 | 1010.3 |
| 20260504044551 | 19 | 0 | 0.0 | 4.8 | 0.00 | 0.00 | 0.00 | 63 | 1010.2 |
| 20260504043040 | 20 | 0 | 0.0 | 4.8 | 0.00 | 0.00 | 0.00 | 61 | 1010.3 |
| 20260504041544 | 20 | 30 | 3.2 | 6.4 | 0.00 | 0.00 | 0.00 | 59 | 1010.2 |